STARLINK-32304, 60738

Orbit data source: Space-Track

STARLINK-32304, 60738 is a payload satellite owned by SpaceX/Seattle (US) in LEO that was launched on Wed, 28 Aug 2024 UTC via an FALCON 9 launch vehicle from the Air Force Eastern Test Range (AFETR). Payloads include a variety of satellites, spacecraft, and rockets equipped with specific instruments for various scientific and technological missions. These include communications satellites like Starlink; space stations such as the ISS; scientific satellites like the Hubble; Earth observation satellites from companies like Planet Labs, Umbra, and HawkEye 360; GPS; miniature CubeSats for education and research; and military/defense satellites.

Loading next visibility...
STARLINK-32304 details
Identifier
60738, 2024-152U
Orbit
LEO
Last TLE update21 hours ago
Origin
Flag of USSpaceX/Seattle (US)
ManufacturerSpaceX/Seattle
MissionOperational spacecraft
Bus & MotorSTARLINK V2M, Unknown motor
Mass730 kg wet, ~700 kg dry
Launch date (UTC)
2024-08-28 (5 months ago)
Launch vehicle
FALCON 9
Launch site
Air Force Eastern Test Range (AFETR)
Object type
Payload
Rocket body
Debris
Shape & HBRUnknown
Radar Cross SectionLarge (>1 m²)

Expand to show TLE details & history

TLE from 21 hours ago
0 STARLINK-32304
1 60738U 24152U   25014.40680807 -.00001392  00000-0 -34888-4 0  9995
2 60738  53.1590  56.1762 0001045  92.8464 267.2656 15.30184284 22654
Epoch: 2025-01-14T09:45Z
Definitive object data (Epoch: 2025-01-14T09:45:48.217Z)
Latitude-0.00004°
Longitude155.61132°
Altitude476.196 km
Speed7.629 km/s
True Right ascension03h 44m 42s
True Declination0° 00' 00"
Sunlit
Object was in full shadow at TLE epoch
Visualization TLE readout
Latitude37.21025°
Longitude-173.92062°
Altitude477.788 km
Speed7.632 km/s
Apparent Right ascension01h 37m 54s
Apparent Declination1° 45' 43"
Sunlit
Object is in full shadow
Visualization observer readout
Local Sidereal Time07:00:36
Azimuth265.343° W
Elevation8.276°
Doppler factor1
Orbital elements
Apogee altitude476.235 km
Perigee altitude474.802 km
Semi-major axis6,853.656 km
Eccentricity0.0001045
Inclination53.159°
RAAN56.1762°
Arg. of periapsis92.8464°
True anomaly267.25364°
Mean anomaly267.2656°
Eccentric anomaly267.25962°
Mean motion3.82525 °/min
BSTAR-0.000034888
Orbital period94.11 mins
Loading maneuver chart data...
Loading historical data...
Loading historical data...
Loading historical data...
Loading historical data...
Loading historical data...
Loading historical data...
Loading historical data...

STARLINK-32304 Visibility forecast

Observer location: undefined°, undefined

Span
Click to sort rows by Start time (UTC) header in descending order
Start Az.
Max El. time (UTC)
Max El. Az.
Max El.
End time (UTC)
End Az.
5 mins2025-01-15 06:22:15.026Z273.254° WNW2025-01-15 06:25:15.026Z342.303° N25.609°2025-01-15 06:27:15.026Z24.38° NE
4 mins2025-01-15 11:20:15.026Z344.307° N2025-01-15 11:22:15.026Z49.437° ENE29.229°2025-01-15 11:24:15.026Z92.433° ESE
4 mins2025-01-15 12:58:15.026Z266.07° W2025-01-15 12:59:15.026Z240.58° WSW24.892°2025-01-15 13:02:15.026Z173.228° S
5 mins2025-01-16 04:15:15.026Z186.257° SSW2025-01-16 04:17:15.026Z140.331° SSE27.453°2025-01-16 04:20:15.026Z72.425° E
5 mins2025-01-16 05:53:15.026Z274.883° WNW2025-01-16 05:55:15.026Z324.826° NNW28.305°2025-01-16 05:58:15.026Z31.19° NE
|